Time,TemperatureF,DewpointF,PressureIn,WindDirection,WindDirectionDegrees,WindSpeedMPH,WindSpeedGustMPH,Humidity,HourlyPrecipIn,Conditions,Clouds,dailyrainin,SoftwareType,DateUTC
2013-03-16 00:00:00,50.4,42.0,29.47,WNW,288,0.0,0.0,73,0.00,,---,0.00,VWS V14.01,2013-03-16 07:00:00,
2013-03-16 00:05:00,50.4,42.0,29.47,WNW,288,0.0,0.0,73,0.00,,---,0.00,VWS V14.01,2013-03-16 07:05:00,
2013-03-16 00:10:00,50.2,41.9,29.47,WNW,288,0.0,0.0,73,0.00,,---,0.00,VWS V14.01,2013-03-16 07:10:00,
2013-03-16 00:15:00,50.2,41.9,29.47,WNW,288,0.0,0.0,73,0.00,,---,0.00,VWS V14.01,2013-03-16 07:15:00,
2013-03-16 00:20:00,50.2,41.9,29.47,WNW,288,0.0,0.0,73,0.00,,---,0.00,VWS V14.01,2013-03-16 07:20:00,
2013-03-16 00:25:00,50.2,41.9,29.47,WNW,288,0.0,0.0,73,0.00,,---,0.00,VWS V14.01,2013-03-16 07:25:00,
2013-03-16 00:30:00,50.2,41.9,29.47,WNW,288,0.0,0.0,73,0.00,,---,0.00,VWS V14.01,2013-03-16 07:30:00,
2013-03-16 00:35:00,50.2,41.9,29.47,WNW,288,0.0,0.0,73,0.00,,---,0.00,VWS V14.01,2013-03-16 07:35:00,
2013-03-16 00:40:00,50.2,41.9,29.47,WNW,288,0.0,0.0,73,0.00,,---,0.00,VWS V14.01,2013-03-16 07:40:00,
2013-03-16 00:45:00,50.2,41.9,29.47,WNW,288,0.0,0.0,73,0.00,,---,0.00,VWS V14.01,2013-03-16 07:45:00,
2013-03-16 00:50:00,50.2,41.9,29.47,WNW,288,0.0,0.0,73,0.00,,---,0.00,VWS V14.01,2013-03-16 07:50:00,
2013-03-16 00:55:00,50.2,41.9,29.47,North,7,0.0,0.0,73,0.00,,---,0.00,VWS V14.01,2013-03-16 07:55:00,
2013-03-16 01:00:00,50.2,41.9,29.47,North,7,0.0,0.0,73,0.00,,---,0.00,VWS V14.01,2013-03-16 08:00:00,
2013-03-16 01:05:00,50.2,41.9,29.47,North,3,0.0,0.0,73,0.00,,---,0.00,VWS V14.01,2013-03-16 08:05:00,
2013-03-16 01:10:00,50.0,41.7,29.47,North,3,0.0,0.0,73,0.00,,---,0.00,VWS V14.01,2013-03-16 08:10:00,
2013-03-16 01:15:00,50.0,41.7,29.47,North,3,0.0,0.0,73,0.00,,---,0.00,VWS V14.01,2013-03-16 08:15:00,
2013-03-16 01:20:00,50.0,41.7,29.47,North,3,0.0,0.0,73,0.00,,---,0.00,VWS V14.01,2013-03-16 08:20:00,
2013-03-16 01:25:00,50.0,41.7,29.47,North,3,0.0,0.0,73,0.00,,---,0.00,VWS V14.01,2013-03-16 08:25:00,
2013-03-16 01:30:00,50.0,41.7,29.47,North,3,0.0,0.0,73,0.00,,---,0.00,VWS V14.01,2013-03-16 08:30:00,
2013-03-16 01:35:00,50.0,41.7,29.47,North,3,0.0,0.0,73,0.00,,---,0.00,VWS V14.01,2013-03-16 08:35:00,
2013-03-16 01:40:00,50.0,41.7,29.47,North,3,0.0,0.0,73,0.00,,---,0.00,VWS V14.01,2013-03-16 08:40:00,
2013-03-16 01:45:00,49.8,41.9,29.47,North,3,0.0,0.0,74,0.00,,---,0.00,VWS V14.01,2013-03-16 08:45:00,
2013-03-16 01:50:00,49.8,41.9,29.47,North,3,0.0,0.0,74,0.00,,---,0.00,VWS V14.01,2013-03-16 08:50:00,
2013-03-16 01:55:00,49.8,41.9,29.47,North,3,0.0,0.0,74,0.00,,---,0.00,VWS V14.01,2013-03-16 08:55:00,
2013-03-16 02:00:00,49.8,41.9,29.47,North,3,0.0,0.0,74,0.00,,---,0.00,VWS V14.01,2013-03-16 09:00:00,
2013-03-16 02:05:00,49.8,41.9,29.47,North,3,0.0,0.0,74,0.00,,---,0.00,VWS V14.01,2013-03-16 09:05:00,
2013-03-16 02:10:00,49.8,42.2,29.47,North,3,0.0,0.0,75,0.00,,---,0.00,VWS V14.01,2013-03-16 09:10:00,
2013-03-16 02:15:00,49.8,42.2,29.47,North,3,0.0,0.0,75,0.00,,---,0.00,VWS V14.01,2013-03-16 09:15:00,
2013-03-16 02:20:00,49.8,42.2,29.47,North,3,0.0,0.0,75,0.00,,---,0.00,VWS V14.01,2013-03-16 09:20:00,
2013-03-16 02:25:00,50.0,42.4,29.47,North,3,0.0,0.0,75,0.00,,---,0.00,VWS V14.01,2013-03-16 09:25:00,
2013-03-16 02:30:00,50.0,42.4,29.47,North,3,0.0,0.0,75,0.00,,---,0.00,VWS V14.01,2013-03-16 09:30:00,
2013-03-16 02:35:00,49.8,42.2,29.47,WNW,303,0.0,0.0,75,0.00,,---,0.00,VWS V14.01,2013-03-16 09:35:00,
2013-03-16 02:40:00,49.8,42.2,29.47,West,276,2.2,4.0,75,0.00,,---,0.00,VWS V14.01,2013-03-16 09:40:00,
2013-03-16 02:45:00,49.8,42.6,29.50,West,276,0.0,0.0,76,0.00,,---,0.00,VWS V14.01,2013-03-16 09:45:00,
2013-03-16 02:50:00,49.6,42.4,29.50,West,275,0.0,0.0,76,0.00,,---,0.00,VWS V14.01,2013-03-16 09:50:00,
2013-03-16 02:55:00,49.6,42.4,29.50,West,275,0.0,0.0,76,0.00,,---,0.00,VWS V14.01,2013-03-16 09:55:00,
2013-03-16 02:59:00,49.6,42.4,29.50,West,275,0.0,0.0,76,0.00,,---,0.00,VWS V14.01,2013-03-16 09:59:00,
2013-03-16 03:04:00,49.5,42.2,29.50,West,275,0.0,0.0,76,0.00,,---,0.00,VWS V14.01,2013-03-16 10:04:00,
2013-03-16 03:09:00,49.5,42.6,29.50,West,275,0.0,0.0,77,0.00,,---,0.00,VWS V14.01,2013-03-16 10:09:00,
2013-03-16 03:14:00,49.3,42.4,29.47,West,275,0.0,0.0,77,0.00,,---,0.00,VWS V14.01,2013-03-16 10:14:00,
2013-03-16 03:19:00,49.3,42.4,29.47,West,276,0.0,0.0,77,0.00,,---,0.00,VWS V14.01,2013-03-16 10:19:00,
2013-03-16 03:24:00,49.1,42.5,29.47,West,276,0.0,0.0,78,0.00,,---,0.00,VWS V14.01,2013-03-16 10:24:00,
2013-03-16 03:29:00,49.1,42.5,29.47,West,276,0.0,0.0,78,0.00,,---,0.00,VWS V14.01,2013-03-16 10:29:00,
2013-03-16 03:34:00,48.9,42.7,29.47,West,276,0.0,0.0,79,0.00,,---,0.00,VWS V14.01,2013-03-16 10:34:00,
2013-03-16 03:39:00,48.7,42.5,29.47,West,276,0.0,0.0,79,0.00,,---,0.00,VWS V14.01,2013-03-16 10:39:00,
2013-03-16 03:44:00,48.7,42.9,29.47,West,276,0.0,0.0,80,0.00,,---,0.00,VWS V14.01,2013-03-16 10:44:00,
2013-03-16 03:49:00,48.7,42.9,29.47,West,276,0.0,0.0,80,0.00,,---,0.00,VWS V14.01,2013-03-16 10:49:00,
2013-03-16 03:54:00,48.7,42.9,29.47,West,276,0.0,0.0,80,0.00,,---,0.00,VWS V14.01,2013-03-16 10:54:00,
2013-03-16 03:59:00,48.7,42.9,29.47,West,272,0.0,0.0,80,0.00,,---,0.00,VWS V14.01,2013-03-16 10:59:00,
2013-03-16 04:04:00,48.7,43.2,29.47,West,272,0.0,0.0,81,0.00,,---,0.00,VWS V14.01,2013-03-16 11:04:00,
2013-03-16 04:09:00,48.7,43.2,29.47,West,272,0.0,0.0,81,0.00,,---,0.00,VWS V14.01,2013-03-16 11:09:00,
2013-03-16 04:14:00,48.7,43.2,29.47,West,272,0.0,0.0,81,0.00,,---,0.00,VWS V14.01,2013-03-16 11:14:00,
2013-03-16 04:19:00,48.7,43.2,29.47,West,261,0.0,0.0,81,0.00,,---,0.00,VWS V14.01,2013-03-16 11:19:00,
2013-03-16 04:24:00,48.7,43.2,29.47,West,261,0.0,0.0,81,0.00,,---,0.00,VWS V14.01,2013-03-16 11:24:00,
2013-03-16 04:29:00,48.7,43.2,29.47,West,261,0.0,0.0,81,0.00,,---,0.00,VWS V14.01,2013-03-16 11:29:00,
2013-03-16 04:34:00,48.7,43.2,29.47,West,261,0.0,0.0,81,0.00,,---,0.00,VWS V14.01,2013-03-16 11:34:00,
2013-03-16 04:39:00,48.7,43.2,29.47,WNW,289,0.0,0.0,81,0.00,,---,0.00,VWS V14.01,2013-03-16 11:39:00,
2013-03-16 04:44:00,48.7,43.2,29.47,WNW,298,0.0,0.0,81,0.00,,---,0.00,VWS V14.01,2013-03-16 11:44:00,
2013-03-16 04:49:00,48.6,43.0,29.47,WNW,298,0.0,0.0,81,0.00,,---,0.00,VWS V14.01,2013-03-16 11:49:00,
2013-03-16 04:54:00,48.6,43.0,29.47,WNW,298,0.0,0.0,81,0.00,,---,0.00,VWS V14.01,2013-03-16 11:54:00,
2013-03-16 04:59:00,48.4,42.8,29.47,WNW,298,0.0,0.0,81,0.00,,---,0.00,VWS V14.01,2013-03-16 11:59:00,
2013-03-16 05:04:00,48.4,43.2,29.47,WNW,298,0.0,0.0,82,0.00,,---,0.00,VWS V14.01,2013-03-16 12:04:00,
2013-03-16 05:09:00,48.2,43.0,29.47,NW,326,0.0,0.0,82,0.00,,---,0.00,VWS V14.01,2013-03-16 12:09:00,
2013-03-16 05:14:00,48.2,43.0,29.47,NW,326,0.0,0.0,82,0.00,,---,0.00,VWS V14.01,2013-03-16 12:14:00,
2013-03-16 05:19:00,48.2,43.0,29.47,WNW,298,0.0,0.0,82,0.00,,---,0.00,VWS V14.01,2013-03-16 12:19:00,
2013-03-16 05:24:00,48.0,42.8,29.47,WNW,296,0.0,0.0,82,0.00,,---,0.00,VWS V14.01,2013-03-16 12:24:00,
2013-03-16 05:29:00,48.0,42.8,29.44,WNW,296,0.0,0.0,82,0.00,,---,0.00,VWS V14.01,2013-03-16 12:29:00,
2013-03-16 05:34:00,48.0,42.8,29.44,WNW,294,0.0,0.0,82,0.00,,---,0.00,VWS V14.01,2013-03-16 12:34:00,
2013-03-16 05:39:00,48.0,42.8,29.44,WNW,294,0.0,0.0,82,0.00,,---,0.00,VWS V14.01,2013-03-16 12:39:00,
2013-03-16 05:44:00,48.0,42.8,29.44,WNW,294,0.0,0.0,82,0.00,,---,0.00,VWS V14.01,2013-03-16 12:44:00,
2013-03-16 05:49:00,48.0,42.8,29.44,WNW,294,0.0,0.0,82,0.00,,---,0.00,VWS V14.01,2013-03-16 12:49:00,
2013-03-16 05:54:00,48.0,42.8,29.44,WNW,299,0.0,0.0,82,0.00,,---,0.00,VWS V14.01,2013-03-16 12:54:00,
2013-03-16 05:59:00,48.0,42.8,29.44,WNW,299,0.0,0.0,82,0.00,,---,0.00,VWS V14.01,2013-03-16 12:59:00,
2013-03-16 06:04:00,48.0,42.8,29.44,West,280,0.0,0.0,82,0.00,,---,0.00,VWS V14.01,2013-03-16 13:04:00,
2013-03-16 06:09:00,48.0,42.8,29.44,West,280,0.0,0.0,82,0.00,,---,0.00,VWS V14.01,2013-03-16 13:09:00,
2013-03-16 06:14:00,48.0,42.8,29.44,West,280,0.0,0.0,82,0.00,,---,0.00,VWS V14.01,2013-03-16 13:14:00,
2013-03-16 06:19:00,48.0,42.8,29.44,WSW,246,0.0,0.0,82,0.00,,---,0.00,VWS V14.01,2013-03-16 13:19:00,
2013-03-16 06:24:00,48.2,43.0,29.44,WSW,244,0.0,0.0,82,0.00,,---,0.00,VWS V14.01,2013-03-16 13:24:00,
2013-03-16 06:29:00,48.2,43.0,29.44,WSW,244,0.0,0.0,82,0.00,,---,0.00,VWS V14.01,2013-03-16 13:29:00,
2013-03-16 06:34:00,48.2,43.0,29.44,WSW,244,0.0,0.0,82,0.00,,---,0.00,VWS V14.01,2013-03-16 13:34:00,
2013-03-16 06:39:00,48.0,42.8,29.44,WSW,244,0.0,0.0,82,0.00,,---,0.00,VWS V14.01,2013-03-16 13:39:00,
2013-03-16 06:44:00,48.0,42.8,29.44,WSW,253,0.0,0.0,82,0.00,,---,0.00,VWS V14.01,2013-03-16 13:44:00,
2013-03-16 06:49:00,47.8,42.6,29.44,WSW,253,0.0,0.0,82,0.00,,---,0.00,VWS V14.01,2013-03-16 13:49:00,
2013-03-16 06:54:00,47.7,42.4,29.44,WSW,250,0.0,0.0,82,0.00,,---,0.00,VWS V14.01,2013-03-16 13:54:00,
2013-03-16 06:59:00,47.5,42.3,29.44,WSW,253,0.0,0.0,82,0.00,,---,0.00,VWS V14.01,2013-03-16 13:59:00,
2013-03-16 07:04:00,47.3,42.1,29.44,WSW,253,0.0,0.0,82,0.00,,---,0.00,VWS V14.01,2013-03-16 14:04:00,
2013-03-16 07:09:00,47.3,42.1,29.44,WSW,239,2.2,2.2,82,0.00,,---,0.00,VWS V14.01,2013-03-16 14:09:00,
2013-03-16 07:14:00,47.3,42.4,29.41,WSW,239,0.0,0.0,83,0.00,,---,0.00,VWS V14.01,2013-03-16 14:14:00,
2013-03-16 07:19:00,47.3,42.4,29.41,WSW,239,0.0,0.0,83,0.00,,---,0.00,VWS V14.01,2013-03-16 14:19:00,
2013-03-16 07:24:00,47.1,42.2,29.41,WSW,239,0.0,0.0,83,0.00,,---,0.00,VWS V14.01,2013-03-16 14:24:00,
2013-03-16 07:29:00,47.1,42.2,29.41,WSW,239,0.0,0.0,83,0.00,,---,0.00,VWS V14.01,2013-03-16 14:29:00,
2013-03-16 07:34:00,47.1,42.2,29.41,WSW,239,0.0,0.0,83,0.00,,---,0.00,VWS V14.01,2013-03-16 14:34:00,
2013-03-16 07:39:00,47.1,42.2,29.41,WNW,292,0.0,0.0,83,0.00,,---,0.00,VWS V14.01,2013-03-16 14:39:00,
2013-03-16 07:44:00,47.1,42.2,29.44,West,278,0.0,0.0,83,0.00,,---,0.00,VWS V14.01,2013-03-16 14:44:00,
2013-03-16 07:49:00,47.3,42.7,29.44,West,278,0.0,0.0,84,0.00,,---,0.00,VWS V14.01,2013-03-16 14:49:00,
2013-03-16 07:54:00,47.3,42.7,29.44,West,278,0.0,0.0,84,0.00,,---,0.00,VWS V14.01,2013-03-16 14:54:00,
2013-03-16 07:59:00,47.3,42.7,29.44,West,278,0.0,0.0,84,0.00,,---,0.00,VWS V14.01,2013-03-16 14:59:00,
2013-03-16 08:04:00,47.5,42.9,29.44,West,278,0.0,0.0,84,0.00,,---,0.00,VWS V14.01,2013-03-16 15:04:00,
2013-03-16 08:09:00,47.5,42.9,29.44,West,278,0.0,0.0,84,0.00,,---,0.00,VWS V14.01,2013-03-16 15:09:00,
2013-03-16 08:14:00,47.7,43.1,29.44,West,278,0.0,0.0,84,0.00,,---,0.00,VWS V14.01,2013-03-16 15:14:00,
2013-03-16 08:19:00,47.7,43.1,29.44,West,278,0.0,0.0,84,0.00,,---,0.00,VWS V14.01,2013-03-16 15:19:00,
2013-03-16 08:24:00,47.8,43.2,29.44,West,278,0.0,0.0,84,0.00,,---,0.00,VWS V14.01,2013-03-16 15:24:00,
2013-03-16 08:29:00,48.0,43.4,29.44,West,259,2.7,2.7,84,0.00,,---,0.00,VWS V14.01,2013-03-16 15:29:00,
2013-03-16 08:34:00,48.2,43.6,29.44,West,273,3.1,3.1,84,0.00,,---,0.00,VWS V14.01,2013-03-16 15:34:00,
2013-03-16 08:39:00,48.2,43.6,29.44,West,270,0.0,0.0,84,0.00,,---,0.00,VWS V14.01,2013-03-16 15:39:00,
2013-03-16 08:44:00,48.4,43.5,29.44,WNW,288,0.0,0.0,83,0.00,,---,0.00,VWS V14.01,2013-03-16 15:44:00,
2013-03-16 08:49:00,48.4,43.5,29.44,West,264,3.1,3.1,83,0.00,,---,0.00,VWS V14.01,2013-03-16 15:49:00,
2013-03-16 08:54:00,48.2,43.0,29.44,North,3,2.7,3.6,82,0.00,,---,0.00,VWS V14.01,2013-03-16 15:54:00,
2013-03-16 08:59:00,48.2,43.0,29.47,NW,320,0.0,0.0,82,0.00,,---,0.00,VWS V14.01,2013-03-16 15:59:00,
2013-03-16 09:04:00,48.0,42.8,29.47,West,278,0.0,0.0,82,0.00,,---,0.00,VWS V14.01,2013-03-16 16:04:00,
2013-03-16 09:09:00,48.0,42.8,29.47,West,275,2.7,4.0,82,0.00,,---,0.00,VWS V14.01,2013-03-16 16:09:00,
2013-03-16 09:14:00,47.7,42.1,29.47,ESE,103,2.2,5.8,81,0.00,,---,0.00,VWS V14.01,2013-03-16 16:14:00,
2013-03-16 09:19:00,47.3,41.8,29.47,NNE,14,2.2,3.1,81,0.00,,---,0.00,VWS V14.01,2013-03-16 16:19:00,
2013-03-16 09:24:00,47.1,41.6,29.47,WNW,297,0.0,2.2,81,0.00,,---,0.00,VWS V14.01,2013-03-16 16:24:00,
2013-03-16 09:29:00,46.9,41.4,29.47,West,276,0.0,0.0,81,0.00,,---,0.00,VWS V14.01,2013-03-16 16:29:00,
2013-03-16 09:34:00,46.9,41.7,29.47,West,273,0.0,0.0,82,0.00,,---,0.00,VWS V14.01,2013-03-16 16:34:00,
2013-03-16 09:39:00,46.9,41.7,29.47,West,280,0.0,0.0,82,0.00,,---,0.00,VWS V14.01,2013-03-16 16:39:00,
2013-03-16 09:44:00,47.1,42.2,29.44,WSW,257,0.0,0.0,83,0.00,,---,0.00,VWS V14.01,2013-03-16 16:44:00,
2013-03-16 09:49:00,47.1,42.2,29.44,North,4,0.0,0.0,83,0.00,,---,0.00,VWS V14.01,2013-03-16 16:49:00,
2013-03-16 09:54:00,47.3,42.7,29.44,WNW,301,2.2,2.2,84,0.00,,---,0.00,VWS V14.01,2013-03-16 16:54:00,
2013-03-16 09:59:00,47.3,42.7,29.44,NW,307,2.7,2.7,84,0.00,,---,0.00,VWS V14.01,2013-03-16 16:59:00,
2013-03-16 10:04:00,47.3,42.7,29.44,WNW,287,0.0,0.0,84,0.00,,---,0.00,VWS V14.01,2013-03-16 17:04:00,
2013-03-16 10:09:00,47.5,42.9,29.44,West,262,2.2,2.7,84,0.00,,---,0.00,VWS V14.01,2013-03-16 17:09:00,
2013-03-16 10:14:00,47.7,43.1,29.44,WSW,252,0.0,0.0,84,0.00,,---,0.00,VWS V14.01,2013-03-16 17:14:00,
2013-03-16 10:19:00,47.7,43.1,29.44,WSW,254,0.0,0.0,84,0.00,,---,0.00,VWS V14.01,2013-03-16 17:19:00,
2013-03-16 10:24:00,47.7,43.1,29.44,West,279,0.0,0.0,84,0.00,,---,0.00,VWS V14.01,2013-03-16 17:24:00,
2013-03-16 10:29:00,47.5,42.9,29.44,West,277,0.0,0.0,84,0.00,,---,0.00,VWS V14.01,2013-03-16 17:29:00,
2013-03-16 10:34:00,47.5,42.9,29.44,West,276,0.0,0.0,84,0.00,,---,0.00,VWS V14.01,2013-03-16 17:34:00,
2013-03-16 10:39:00,47.7,43.1,29.44,West,274,2.7,2.7,84,0.00,,---,0.00,VWS V14.01,2013-03-16 17:39:00,
2013-03-16 10:44:00,47.8,43.6,29.44,WSW,243,3.6,3.6,85,0.00,,---,0.00,VWS V14.01,2013-03-16 17:44:00,
2013-03-16 10:49:00,48.0,43.7,29.44,WSW,238,0.0,0.0,85,0.00,,---,0.00,VWS V14.01,2013-03-16 17:49:00,
2013-03-16 10:54:00,48.4,44.1,29.44,WNW,300,2.7,2.7,85,0.00,,---,0.00,VWS V14.01,2013-03-16 17:54:00,
2013-03-16 10:59:00,48.6,44.3,29.44,WSW,249,0.0,0.0,85,0.00,,---,0.00,VWS V14.01,2013-03-16 17:59:00,
2013-03-16 11:04:00,48.7,44.4,29.44,West,276,3.6,3.6,85,0.00,,---,0.00,VWS V14.01,2013-03-16 18:04:00,
2013-03-16 11:09:00,48.7,44.1,29.44,West,274,0.0,2.2,84,0.00,,---,0.00,VWS V14.01,2013-03-16 18:09:00,
2013-03-16 11:14:00,48.9,44.0,29.44,WSW,243,0.0,0.0,83,0.00,,---,0.00,VWS V14.01,2013-03-16 18:14:00,
2013-03-16 11:19:00,48.9,44.0,29.44,WSW,243,0.0,0.0,83,0.00,,---,0.00,VWS V14.01,2013-03-16 18:19:00,
2013-03-16 11:24:00,48.9,43.7,29.44,WSW,252,2.2,2.2,82,0.00,,---,0.00,VWS V14.01,2013-03-16 18:24:00,
2013-03-16 11:29:00,49.1,43.8,29.44,West,269,0.0,0.0,82,0.00,,---,0.00,VWS V14.01,2013-03-16 18:29:00,
2013-03-16 11:34:00,49.3,43.7,29.44,WSW,251,2.7,2.7,81,0.00,,---,0.00,VWS V14.01,2013-03-16 18:34:00,
2013-03-16 11:39:00,49.3,43.0,29.44,WNW,282,0.0,0.0,79,0.00,,---,0.00,VWS V14.01,2013-03-16 18:39:00,
2013-03-16 11:44:00,49.5,42.9,29.44,WSW,256,0.0,0.0,78,0.00,,---,0.00,VWS V14.01,2013-03-16 18:44:00,
2013-03-16 11:49:00,49.5,42.9,29.44,West,269,0.0,0.0,78,0.00,,---,0.00,VWS V14.01,2013-03-16 18:49:00,
2013-03-16 11:54:00,49.6,43.1,29.44,West,260,3.1,3.1,78,0.00,,---,0.00,VWS V14.01,2013-03-16 18:54:00,
2013-03-16 11:59:00,49.5,42.2,29.44,West,272,4.9,4.9,76,0.00,,---,0.00,VWS V14.01,2013-03-16 18:59:00,
2013-03-16 12:04:00,49.5,41.9,29.44,West,264,2.7,2.7,75,0.00,,---,0.00,VWS V14.01,2013-03-16 19:04:00,
2013-03-16 12:09:00,49.3,40.7,29.44,WNW,288,2.2,2.2,72,0.00,,---,0.00,VWS V14.01,2013-03-16 19:09:00,
2013-03-16 12:14:00,49.1,40.1,29.44,West,281,2.2,2.2,71,0.00,,---,0.00,VWS V14.01,2013-03-16 19:14:00,
2013-03-16 12:19:00,49.1,40.1,29.44,West,274,2.2,3.6,71,0.00,,---,0.00,VWS V14.01,2013-03-16 19:19:00,
2013-03-16 12:24:00,49.1,40.5,29.44,WSW,253,0.0,2.2,72,0.00,,---,0.00,VWS V14.01,2013-03-16 19:24:00,
2013-03-16 12:29:00,49.1,40.5,29.44,West,268,4.0,4.0,72,0.00,,---,0.00,VWS V14.01,2013-03-16 19:29:00,
2013-03-16 12:34:00,49.1,39.8,29.44,West,274,5.4,5.4,70,0.00,,---,0.00,VWS V14.01,2013-03-16 19:34:00,
2013-03-16 12:39:00,49.1,39.8,29.44,NW,307,3.1,3.1,70,0.00,,---,0.00,VWS V14.01,2013-03-16 19:39:00,
2013-03-16 12:44:00,49.1,40.1,29.41,WSW,256,0.0,0.0,71,0.00,,---,0.00,VWS V14.01,2013-03-16 19:44:00,
2013-03-16 12:49:00,49.1,40.5,29.41,WSW,253,0.0,0.0,72,0.00,,---,0.00,VWS V14.01,2013-03-16 19:49:00,
2013-03-16 12:54:00,49.1,40.8,29.41,WSW,253,3.1,3.1,73,0.00,,---,0.00,VWS V14.01,2013-03-16 19:54:00,
2013-03-16 12:59:00,48.9,41.0,29.41,West,280,2.7,3.1,74,0.00,,---,0.00,VWS V14.01,2013-03-16 19:59:00,
2013-03-16 13:04:00,48.7,41.2,29.41,SSE,162,2.7,4.0,75,0.00,,---,0.00,VWS V14.01,2013-03-16 20:04:00,
2013-03-16 13:09:00,48.6,41.3,29.41,West,281,0.0,3.1,76,0.04,,---,0.04,VWS V14.01,2013-03-16 20:09:00,
2013-03-16 13:14:00,48.4,41.8,29.41,SW,224,0.0,0.0,78,0.04,,---,0.04,VWS V14.01,2013-03-16 20:14:00,
2013-03-16 13:19:00,48.2,42.0,29.41,West,261,0.0,0.0,79,0.04,,---,0.04,VWS V14.01,2013-03-16 20:19:00,
2013-03-16 13:24:00,48.4,42.5,29.41,West,266,2.7,2.7,80,0.04,,---,0.04,VWS V14.01,2013-03-16 20:24:00,
2013-03-16 13:29:00,48.2,42.3,29.41,SW,235,3.1,3.1,80,0.04,,---,0.04,VWS V14.01,2013-03-16 20:29:00,
2013-03-16 13:34:00,48.2,42.3,29.41,West,281,0.0,0.0,80,0.04,,---,0.04,VWS V14.01,2013-03-16 20:34:00,
2013-03-16 13:39:00,48.2,42.7,29.41,West,279,0.0,0.0,81,0.04,,---,0.04,VWS V14.01,2013-03-16 20:39:00,
2013-03-16 13:44:00,48.2,42.7,29.41,West,277,0.0,0.0,81,0.04,,---,0.04,VWS V14.01,2013-03-16 20:44:00,
2013-03-16 13:49:00,48.2,42.7,29.41,West,279,2.2,2.7,81,0.04,,---,0.04,VWS V14.01,2013-03-16 20:49:00,
2013-03-16 13:54:00,48.0,42.8,29.41,North,3,2.7,2.7,82,0.04,,---,0.04,VWS V14.01,2013-03-16 20:54:00,
2013-03-16 13:59:00,47.7,42.4,29.41,NE,52,3.1,3.1,82,0.04,,---,0.04,VWS V14.01,2013-03-16 20:59:00,
2013-03-16 14:04:00,47.5,42.3,29.41,West,272,2.2,2.2,82,0.04,,---,0.04,VWS V14.01,2013-03-16 21:04:00,
2013-03-16 14:09:00,47.5,42.6,29.41,West,272,0.0,0.0,83,0.04,,---,0.08,VWS V14.01,2013-03-16 21:09:00,
2013-03-16 14:14:00,47.7,43.1,29.38,North,4,2.2,2.2,84,0.04,,---,0.08,VWS V14.01,2013-03-16 21:14:00,
2013-03-16 14:19:00,47.8,43.6,29.38,NE,40,0.0,0.0,85,0.04,,---,0.08,VWS V14.01,2013-03-16 21:19:00,
2013-03-16 14:24:00,47.8,43.6,29.38,West,268,4.0,4.0,85,0.04,,---,0.08,VWS V14.01,2013-03-16 21:24:00,
2013-03-16 14:29:00,48.0,43.7,29.38,West,263,0.0,2.7,85,0.04,,---,0.08,VWS V14.01,2013-03-16 21:29:00,
2013-03-16 14:34:00,48.0,44.0,29.38,WNW,285,4.0,5.4,86,0.04,,---,0.08,VWS V14.01,2013-03-16 21:34:00,
2013-03-16 14:39:00,48.0,44.0,29.38,NW,310,2.2,2.2,86,0.04,,---,0.08,VWS V14.01,2013-03-16 21:39:00,
2013-03-16 14:44:00,48.0,44.0,29.38,West,277,2.7,2.7,86,0.04,,---,0.08,VWS V14.01,2013-03-16 21:44:00,
2013-03-16 14:49:00,47.8,43.9,29.38,WNW,294,2.7,4.0,86,0.04,,---,0.08,VWS V14.01,2013-03-16 21:49:00,
2013-03-16 14:54:00,47.8,43.9,29.38,WNW,292,6.3,6.3,86,0.04,,---,0.08,VWS V14.01,2013-03-16 21:54:00,
2013-03-16 14:59:00,47.7,43.7,29.38,SE,132,4.0,4.0,86,0.04,,---,0.08,VWS V14.01,2013-03-16 21:59:00,
2013-03-16 15:04:00,47.7,43.7,29.38,West,259,0.0,2.2,86,0.04,,---,0.08,VWS V14.01,2013-03-16 22:04:00,
2013-03-16 15:09:00,48.0,44.0,29.38,East,94,3.1,3.1,86,0.00,,---,0.08,VWS V14.01,2013-03-16 22:09:00,
2013-03-16 15:14:00,48.0,44.0,29.38,SW,222,0.0,0.0,86,0.00,,---,0.08,VWS V14.01,2013-03-16 22:14:00,
2013-03-16 15:19:00,48.0,44.0,29.38,SW,214,3.6,3.6,86,0.04,,---,0.12,VWS V14.01,2013-03-16 22:19:00,
2013-03-16 15:24:00,48.0,44.0,29.38,West,271,4.5,4.9,86,0.04,,---,0.12,VWS V14.01,2013-03-16 22:24:00,
2013-03-16 15:29:00,48.0,43.7,29.38,ESE,104,4.5,4.5,85,0.04,,---,0.12,VWS V14.01,2013-03-16 22:29:00,
2013-03-16 15:34:00,48.0,43.7,29.38,WSW,257,3.1,3.1,85,0.04,,---,0.12,VWS V14.01,2013-03-16 22:34:00,
2013-03-16 15:39:00,48.0,43.7,29.38,SW,234,2.7,2.7,85,0.04,,---,0.12,VWS V14.01,2013-03-16 22:39:00,
2013-03-16 15:44:00,48.0,43.4,29.35,WSW,253,3.1,3.1,84,0.04,,---,0.12,VWS V14.01,2013-03-16 22:44:00,
2013-03-16 15:49:00,48.0,43.1,29.35,WSW,247,0.0,0.0,83,0.04,,---,0.12,VWS V14.01,2013-03-16 22:49:00,
2013-03-16 15:54:00,48.0,43.1,29.35,SW,225,3.1,3.1,83,0.04,,---,0.12,VWS V14.01,2013-03-16 22:54:00,
2013-03-16 15:59:00,48.2,43.3,29.35,WSW,247,2.7,4.0,83,0.04,,---,0.12,VWS V14.01,2013-03-16 22:59:00,
2013-03-16 16:04:00,48.6,43.6,29.35,SW,218,5.4,5.4,83,0.04,,---,0.12,VWS V14.01,2013-03-16 23:04:00,
2013-03-16 16:09:00,48.7,43.8,29.35,WNW,287,3.1,3.1,83,0.04,,---,0.12,VWS V14.01,2013-03-16 23:09:00,
2013-03-16 16:14:00,49.3,44.3,29.35,WSW,237,3.1,3.1,83,0.04,,---,0.12,VWS V14.01,2013-03-16 23:14:00,
2013-03-16 16:19:00,49.3,43.7,29.35,North,357,3.6,3.6,81,0.00,,---,0.12,VWS V14.01,2013-03-16 23:19:00,
2013-03-16 16:24:00,49.1,42.9,29.35,WSW,258,2.2,2.2,79,0.00,,---,0.12,VWS V14.01,2013-03-16 23:24:00,
2013-03-16 16:29:00,49.1,42.9,29.32,West,278,3.6,3.6,79,0.00,,---,0.12,VWS V14.01,2013-03-16 23:29:00,
2013-03-16 16:34:00,48.7,42.2,29.32,West,264,2.7,4.0,78,0.00,,---,0.12,VWS V14.01,2013-03-16 23:34:00,
2013-03-16 16:39:00,48.6,42.0,29.32,WNW,300,0.0,4.9,78,0.00,,---,0.12,VWS V14.01,2013-03-16 23:39:00,
2013-03-16 16:44:00,48.4,42.2,29.32,North,353,0.0,0.0,79,0.00,,---,0.12,VWS V14.01,2013-03-16 23:44:00,
2013-03-16 16:49:00,48.2,42.0,29.32,NE,37,2.7,5.4,79,0.00,,---,0.12,VWS V14.01,2013-03-16 23:49:00,
2013-03-16 16:54:00,48.0,42.2,29.32,West,265,0.0,3.1,80,0.00,,---,0.12,VWS V14.01,2013-03-16 23:54:00,
2013-03-16 16:59:00,48.0,42.5,29.32,West,268,3.6,3.6,81,0.00,,---,0.12,VWS V14.01,2013-03-16 23:59:00,
2013-03-16 17:04:00,48.0,42.8,29.32,WSW,253,2.2,3.6,82,0.00,,---,0.12,VWS V14.01,2013-03-17 00:04:00,
2013-03-16 17:09:00,48.0,42.8,29.32,SW,226,2.7,2.7,82,0.00,,---,0.12,VWS V14.01,2013-03-17 00:09:00,
2013-03-16 17:14:00,47.8,42.9,29.32,ENE,76,3.1,5.8,83,0.00,,---,0.12,VWS V14.01,2013-03-17 00:14:00,
2013-03-16 17:19:00,47.7,42.8,29.32,WSW,237,3.1,4.0,83,0.00,,---,0.12,VWS V14.01,2013-03-17 00:19:00,
2013-03-16 17:24:00,47.5,42.9,29.32,NW,317,4.0,4.0,84,0.00,,---,0.12,VWS V14.01,2013-03-17 00:24:00,
2013-03-16 17:29:00,47.5,42.9,29.32,West,273,0.0,4.0,84,0.04,,---,0.16,VWS V14.01,2013-03-17 00:29:00,
2013-03-16 17:34:00,47.3,42.7,29.32,WSW,243,2.7,3.6,84,0.04,,---,0.16,VWS V14.01,2013-03-17 00:34:00,
2013-03-16 17:39:00,47.3,43.0,29.32,West,279,2.7,5.4,85,0.04,,---,0.16,VWS V14.01,2013-03-17 00:39:00,
2013-03-16 17:44:00,47.1,42.8,29.32,WSW,246,4.0,4.0,85,0.04,,---,0.16,VWS V14.01,2013-03-17 00:44:00,
2013-03-16 17:49:00,45.5,40.0,29.32,East,79,0.0,0.0,81,0.04,,---,0.16,VWS V14.01,2013-03-17 00:49:00,
2013-03-16 17:54:00,43.2,36.5,29.32,NE,38,0.0,0.0,77,0.08,,---,0.20,VWS V14.01,2013-03-17 00:54:00,
2013-03-16 17:59:00,41.7,35.0,29.35,SW,222,3.1,3.1,77,0.12,,---,0.24,VWS V14.01,2013-03-17 00:59:00,
2013-03-16 18:04:00,41.4,35.0,29.35,West,271,0.0,2.2,78,0.12,,---,0.24,VWS V14.01,2013-03-17 01:04:00,
2013-03-16 18:09:00,41.2,35.5,29.35,NE,56,2.2,3.1,80,0.12,,---,0.24,VWS V14.01,2013-03-17 01:09:00,
2013-03-16 18:14:00,41.4,36.3,29.35,NE,45,2.2,3.1,82,0.12,,---,0.24,VWS V14.01,2013-03-17 01:14:00,
2013-03-16 18:19:00,41.4,36.6,29.35,ENE,58,2.7,2.7,83,0.12,,---,0.24,VWS V14.01,2013-03-17 01:19:00,
2013-03-16 18:24:00,41.4,36.6,29.35,NE,48,0.0,0.0,83,0.12,,---,0.24,VWS V14.01,2013-03-17 01:24:00,
2013-03-16 18:29:00,41.4,36.9,29.38,NE,47,0.0,2.2,84,0.08,,---,0.24,VWS V14.01,2013-03-17 01:29:00,
2013-03-16 18:34:00,41.4,36.9,29.38,North,357,0.0,0.0,84,0.08,,---,0.24,VWS V14.01,2013-03-17 01:34:00,
2013-03-16 18:39:00,41.4,37.2,29.38,WSW,253,0.0,2.2,85,0.08,,---,0.24,VWS V14.01,2013-03-17 01:39:00,
2013-03-16 18:44:00,41.4,37.2,29.38,WNW,285,0.0,4.0,85,0.08,,---,0.24,VWS V14.01,2013-03-17 01:44:00,
2013-03-16 18:49:00,41.4,37.2,29.38,SW,226,0.0,0.0,85,0.08,,---,0.24,VWS V14.01,2013-03-17 01:49:00,
2013-03-16 18:54:00,41.5,37.4,29.38,SW,226,0.0,0.0,85,0.04,,---,0.24,VWS V14.01,2013-03-17 01:54:00,
2013-03-16 18:59:00,41.5,37.7,29.38,SW,226,0.0,0.0,86,0.00,,---,0.24,VWS V14.01,2013-03-17 01:59:00,
2013-03-16 19:04:00,41.5,37.7,29.38,SW,226,0.0,0.0,86,0.00,,---,0.24,VWS V14.01,2013-03-17 02:04:00,
2013-03-16 19:09:00,41.4,37.5,29.38,SW,226,0.0,0.0,86,0.00,,---,0.24,VWS V14.01,2013-03-17 02:09:00,
2013-03-16 19:14:00,41.2,37.0,29.38,SW,226,0.0,0.0,85,0.00,,---,0.24,VWS V14.01,2013-03-17 02:14:00,
2013-03-16 19:19:00,41.0,36.8,29.38,SW,226,0.0,0.0,85,0.00,,---,0.24,VWS V14.01,2013-03-17 02:19:00,
2013-03-16 19:24:00,40.6,36.8,29.38,SW,226,0.0,0.0,86,0.00,,---,0.24,VWS V14.01,2013-03-17 02:24:00,
2013-03-16 19:29:00,40.5,36.3,29.38,SW,227,0.0,0.0,85,0.00,,---,0.24,VWS V14.01,2013-03-17 02:29:00,
2013-03-16 19:34:00,40.5,36.3,29.38,SW,226,0.0,0.0,85,0.00,,---,0.24,VWS V14.01,2013-03-17 02:34:00,
2013-03-16 19:39:00,40.5,36.6,29.38,SW,226,0.0,0.0,86,0.00,,---,0.24,VWS V14.01,2013-03-17 02:39:00,
2013-03-16 19:44:00,40.3,36.4,29.38,SW,226,0.0,0.0,86,0.00,,---,0.24,VWS V14.01,2013-03-17 02:44:00,
2013-03-16 19:49:00,40.5,36.6,29.38,SW,226,0.0,0.0,86,0.00,,---,0.24,VWS V14.01,2013-03-17 02:49:00,
2013-03-16 19:54:00,40.5,36.6,29.38,SW,226,0.0,0.0,86,0.00,,---,0.24,VWS V14.01,2013-03-17 02:54:00,
2013-03-16 19:59:00,40.5,36.6,29.38,SW,226,0.0,0.0,86,0.00,,---,0.24,VWS V14.01,2013-03-17 02:59:00,
2013-03-16 20:04:00,40.5,36.6,29.38,SW,226,0.0,0.0,86,0.00,,---,0.24,VWS V14.01,2013-03-17 03:04:00,
2013-03-16 20:09:00,40.6,36.8,29.38,SW,226,0.0,0.0,86,0.00,,---,0.24,VWS V14.01,2013-03-17 03:09:00,
2013-03-16 20:14:00,40.6,37.1,29.41,SW,226,0.0,0.0,87,0.00,,---,0.24,VWS V14.01,2013-03-17 03:14:00,
2013-03-16 20:19:00,40.6,37.1,29.41,SW,226,0.0,0.0,87,0.00,,---,0.24,VWS V14.01,2013-03-17 03:19:00,
2013-03-16 20:24:00,40.6,37.1,29.41,SW,226,0.0,0.0,87,0.00,,---,0.24,VWS V14.01,2013-03-17 03:24:00,
2013-03-16 20:29:00,40.6,37.1,29.41,SW,226,0.0,0.0,87,0.00,,---,0.24,VWS V14.01,2013-03-17 03:29:00,
2013-03-16 20:34:00,40.6,37.1,29.41,SW,226,0.0,0.0,87,0.00,,---,0.24,VWS V14.01,2013-03-17 03:34:00,
2013-03-16 20:39:00,40.8,37.3,29.41,SW,226,0.0,0.0,87,0.00,,---,0.24,VWS V14.01,2013-03-17 03:39:00,
2013-03-16 20:44:00,40.8,37.3,29.41,SW,227,0.0,0.0,87,0.00,,---,0.24,VWS V14.01,2013-03-17 03:44:00,
2013-03-16 20:49:00,40.8,37.5,29.41,SW,226,0.0,0.0,88,0.00,,---,0.24,VWS V14.01,2013-03-17 03:49:00,
2013-03-16 20:54:00,41.0,37.4,29.41,SW,226,0.0,0.0,87,0.00,,---,0.24,VWS V14.01,2013-03-17 03:54:00,
2013-03-16 20:59:00,41.0,37.4,29.41,SW,226,0.0,0.0,87,0.00,,---,0.24,VWS V14.01,2013-03-17 03:59:00,
2013-03-16 21:00:00,41.0,37.4,29.41,SW,226,0.0,0.0,87,0.00,,---,0.24,VWS V14.01,2013-03-17 04:00:00,
2013-03-16 21:05:00,41.0,37.4,29.41,SW,226,0.0,0.0,87,0.00,,---,0.24,VWS V14.01,2013-03-17 04:05:00,
2013-03-16 21:10:00,41.2,37.9,29.41,SW,226,0.0,0.0,88,0.00,,---,0.24,VWS V14.01,2013-03-17 04:10:00,
2013-03-16 21:15:00,41.2,37.9,29.41,SW,226,0.0,0.0,88,0.00,,---,0.24,VWS V14.01,2013-03-17 04:15:00,
2013-03-16 21:20:00,41.2,37.9,29.41,SW,226,0.0,0.0,88,0.00,,---,0.24,VWS V14.01,2013-03-17 04:20:00,
2013-03-16 21:25:00,41.2,37.9,29.41,SW,226,0.0,0.0,88,0.08,,---,0.31,VWS V14.01,2013-03-17 04:25:00,
2013-03-16 21:30:00,41.2,37.9,29.41,SW,226,0.0,0.0,88,0.08,,---,0.31,VWS V14.01,2013-03-17 04:30:00,
2013-03-16 21:35:00,41.2,37.9,29.41,SW,226,0.0,0.0,88,0.08,,---,0.31,VWS V14.01,2013-03-17 04:35:00,
2013-03-16 21:40:00,41.2,37.9,29.41,SW,226,0.0,0.0,88,0.08,,---,0.31,VWS V14.01,2013-03-17 04:40:00,
2013-03-16 21:45:00,41.4,38.1,29.41,SW,227,0.0,0.0,88,0.08,,---,0.31,VWS V14.01,2013-03-17 04:45:00,
2013-03-16 21:50:00,41.4,38.1,29.41,WSW,237,0.0,2.2,88,0.08,,---,0.31,VWS V14.01,2013-03-17 04:50:00,
2013-03-16 21:55:00,41.4,38.1,29.41,WSW,244,0.0,0.0,88,0.08,,---,0.31,VWS V14.01,2013-03-17 04:55:00,
2013-03-16 22:00:00,41.5,38.3,29.44,WSW,244,0.0,0.0,88,0.08,,---,0.31,VWS V14.01,2013-03-17 05:00:00,
2013-03-16 22:05:00,41.4,38.1,29.44,WSW,244,0.0,0.0,88,0.08,,---,0.31,VWS V14.01,2013-03-17 05:05:00,
2013-03-16 22:10:00,41.4,38.1,29.44,WSW,244,0.0,0.0,88,0.08,,---,0.31,VWS V14.01,2013-03-17 05:10:00,
2013-03-16 22:15:00,41.4,38.1,29.44,WSW,258,0.0,0.0,88,0.08,,---,0.31,VWS V14.01,2013-03-17 05:15:00,
2013-03-16 22:20:00,41.4,38.1,29.44,WNW,287,0.0,0.0,88,0.08,,---,0.31,VWS V14.01,2013-03-17 05:20:00,
2013-03-16 22:25:00,41.4,38.1,29.44,NE,48,2.2,2.2,88,0.00,,---,0.31,VWS V14.01,2013-03-17 05:25:00,
2013-03-16 22:30:00,41.4,38.1,29.44,WNW,289,2.7,2.7,88,0.00,,---,0.31,VWS V14.01,2013-03-17 05:30:00,
2013-03-16 22:35:00,41.2,37.6,29.44,NE,42,2.7,2.7,87,0.00,,---,0.31,VWS V14.01,2013-03-17 05:35:00,
2013-03-16 22:40:00,41.2,37.6,29.44,West,271,0.0,0.0,87,0.00,,---,0.31,VWS V14.01,2013-03-17 05:40:00,
2013-03-16 22:45:00,41.2,37.6,29.44,West,281,0.0,2.7,87,0.00,,---,0.31,VWS V14.01,2013-03-17 05:45:00,
2013-03-16 22:50:00,41.0,37.4,29.44,NW,324,0.0,0.0,87,0.00,,---,0.31,VWS V14.01,2013-03-17 05:50:00,
2013-03-16 22:55:00,40.8,37.3,29.44,NE,42,0.0,2.2,87,0.00,,---,0.31,VWS V14.01,2013-03-17 05:55:00,
2013-03-16 23:00:00,40.6,36.8,29.44,NE,42,0.0,0.0,86,0.00,,---,0.31,VWS V14.01,2013-03-17 06:00:00,
2013-03-16 23:05:00,40.5,36.6,29.44,North,3,0.0,0.0,86,0.00,,---,0.31,VWS V14.01,2013-03-17 06:05:00,
2013-03-16 23:10:00,40.3,36.4,29.44,North,3,0.0,0.0,86,0.00,,---,0.31,VWS V14.01,2013-03-17 06:10:00,
2013-03-16 23:15:00,40.3,36.1,29.47,North,3,0.0,0.0,85,0.00,,---,0.31,VWS V14.01,2013-03-17 06:15:00,
2013-03-16 23:20:00,40.1,36.0,29.47,North,3,0.0,0.0,85,0.00,,---,0.31,VWS V14.01,2013-03-17 06:20:00,
2013-03-16 23:25:00,39.9,35.8,29.47,North,3,0.0,0.0,85,0.00,,---,0.31,VWS V14.01,2013-03-17 06:25:00,
2013-03-16 23:30:00,39.9,35.8,29.47,North,3,0.0,0.0,85,0.00,,---,0.31,VWS V14.01,2013-03-17 06:30:00,
2013-03-16 23:35:00,39.7,35.6,29.47,North,3,0.0,0.0,85,0.00,,---,0.31,VWS V14.01,2013-03-17 06:35:00,
2013-03-16 23:40:00,39.6,35.4,29.47,North,2,0.0,0.0,85,0.00,,---,0.31,VWS V14.01,2013-03-17 06:40:00,
2013-03-16 23:45:00,39.6,35.4,29.47,North,2,0.0,0.0,85,0.00,,---,0.31,VWS V14.01,2013-03-17 06:45:00,
2013-03-16 23:50:00,39.7,35.6,29.47,North,2,0.0,0.0,85,0.00,,---,0.31,VWS V14.01,2013-03-17 06:50:00,
2013-03-16 23:55:00,39.7,35.6,29.47,NE,34,3.6,3.6,85,0.00,,---,0.31,VWS V14.01,2013-03-17 06:55:00,